This is the latest recevied weather packets stored in our database for station/object K8GLX. If no packets are shown the sender has not sent any weather packets the latest 10 day(s).
| Time | Temp. | Humidity | Pressure | Rain* | Wind** | Luminosity | Snow |
|---|---|---|---|---|---|---|---|
| 1777562665 | 8.33° C | 73% | 1014.2 hPa | 0 mm | - | 494 W/m² | - |
| 1777562232 | 7.78° C | 73% | 1014.3 hPa | 0 mm | - | 562 W/m² | - |
| 1777562065 | 7.78° C | 75% | 1014.4 hPa | 0 mm | - | 771 W/m² | - |
| 1777561633 | 7.22° C | 74% | 1014.5 hPa | 0 mm | - | 598 W/m² | - |
| 1777561444 | 7.78° C | 74% | 1014.3 hPa | 0 mm | - | 524 W/m² | - |
| 1777561159 | 7.78° C | 76% | 1014.3 hPa | 0 mm | - | 536 W/m² | - |
| 1777560865 | 7.78° C | 77% | 1014.1 hPa | 0 mm | - | 754 W/m² | - |
| 1777560433 | 7.22° C | 76% | 1013.9 hPa | 0 mm | - | 544 W/m² | - |
| 1777560138 | 7.22° C | 77% | 1014.1 hPa | 0 mm | - | 454 W/m² | - |
| 1777559832 | 7.22° C | 78% | 1013.8 hPa | 0 mm | - | 433 W/m² | - |
| 1777559538 | 6.67° C | 78% | 1013.8 hPa | 0 mm | - | 418 W/m² | - |
| 1777559232 | 7.22° C | 78% | 1013.8 hPa | 0 mm | - | 352 W/m² | - |
| 1777558938 | 6.67° C | 78% | 1013.8 hPa | 0 mm | - | 315 W/m² | - |
| 1777558633 | 7.22° C | 77% | 1013.7 hPa | 0 mm | - | 533 W/m² | - |
| 1777558339 | 7.22° C | 78% | 1013.6 hPa | 0 mm | - | 203 W/m² | - |
| 1777558032 | 7.22° C | 79% | 1013.7 hPa | 0 mm | - | 272 W/m² | - |
| 1777557865 | 7.22° C | 78% | 1013.3 hPa | 0 mm | - | 298 W/m² | - |
| 1777557432 | 6.67° C | 76% | 1013.7 hPa | 0 mm | - | 285 W/m² | - |
| 1777557144 | 6.67° C | 76% | 1013.3 hPa | 0 mm | - | 289 W/m² | - |
| 1777556833 | 6.67° C | 78% | 1013.3 hPa | 0 mm | - | 368 W/m² | - |
| 1777556667 | 6.67° C | 77% | 1013.2 hPa | 0 mm | - | 227 W/m² | - |
| 1777556233 | 6.67° C | 78% | 1013.2 hPa | 0 mm | - | 257 W/m² | - |
| 1777555938 | 6.67° C | 79% | 1013.3 hPa | 0 mm | - | 251 W/m² | - |
| 1777555633 | 6.67° C | 80% | 1013.2 hPa | 0 mm | - | 234 W/m² | - |
| 1777555338 | 6.67° C | 80% | 1013.1 hPa | 0 mm | - | 248 W/m² | - |
* Rain latest hour (hover to see other rain measurements)
** Current wind speed in m/s (hover to see current wind gust speed)